EW3708 Weather Reports


time (UTC)temp
F
wind
direction
speed
knots
gust
knots
rain 1hr
in
rain 24hr
in
rain mn
in
humidity
%
barometer
mb
20260507084508 42 292 0.0 0.0 0.00 0.45 0.02 90 1008.9
20260507083006 43 292 0.0 0.9 0.00 0.45 0.02 90 1008.9
20260507081507 43 292 0.9 1.7 0.00 0.45 0.02 89 1009.2
20260507080003 43 292 0.0 2.6 0.00 0.45 0.02 90 1009.3
20260507074500 44 292 1.7 2.6 0.00 0.45 0.02 90 1009.4
20260507073102 44 288 0.9 2.6 0.00 0.45 0.02 92 1009.4
20260507071557 44 288 0.0 0.0 0.00 0.45 0.02 93 1009.3
20260507070104 44 288 0.0 0.0 0.00 0.45 0.02 93 1009.5
20260507064555 44 288 0.0 0.9 0.01 0.45 0.02 93 1009.7
20260507063055 44 288 0.0 0.0 0.01 0.45 0.02 92 1009.3
20260507061554 44 288 0.0 1.7 0.01 0.45 0.02 92 1009.4
20260507060059 44 288 0.0 1.7 0.00 0.44 0.01 92 1009.3
20260507054554 44 288 0.0 0.9 0.00 0.44 0.01 92 1009.3
20260507053051 44 288 0.0 0.9 0.00 0.44 0.01 91 1009.1
20260507051549 44 288 0.0 1.7 0.01 0.44 0.01 91 1009.0
20260507050047 44 288 0.0 1.7 0.01 0.44 0.01 91 1008.7
20260507044557 45 288 0.9 1.7 0.01 0.44 0.01 90 1008.3
20260507043056 45 288 0.0 1.7 0.01 0.44 0.01 90 1008.4
20260507041540 45 288 0.0 1.7 0.00 0.43 0.00 89 1009.0
20260507040040 45 288 0.9 2.6 0.00 0.43 0.00 88 1009.0
20260507034538 45 288 0.9 1.7 0.00 0.43 0.43 89 1008.9
20260507033038 45 288 0.0 1.7 0.00 0.43 0.43 89 1008.7
20260507031534 45 288 0.0 3.5 0.00 0.43 0.43 88 1008.6
20260507030031 46 287 0.9 2.6 0.00 0.43 0.43 88 1008.3
20260507024531 46 287 0.9 2.6 0.00 0.43 0.43 88 1008.6
20260507023029 46 287 0.9 1.7 0.00 0.43 0.43 89 1008.8
20260507021529 46 287 0.0 3.5 0.00 0.43 0.43 89 1008.8
20260507020043 46 287 0.9 3.5 0.00 0.43 0.43 91 1009.1
20260507014524 47 287 0.9 2.6 0.00 0.43 0.43 92 1009.1
20260507013024 47 287 0.9 2.6 0.00 0.43 0.43 92 1008.9
20260507011534 47 265 0.9 5.2 0.00 0.43 0.43 91 1008.8
20260507010018 47 296 0.9 2.6 0.00 0.43 0.43 91 1008.5
20260507004514 47 296 0.0 1.7 0.00 0.43 0.43 91 1008.3
20260507003012 48 296 0.0 2.6 0.00 0.43 0.43 91 1008.1
20260507001531 48 296 0.0 2.6 0.00 0.43 0.43 90 1007.8
20260507000013 49 295 1.7 3.5 0.00 0.43 0.43 91 1007.3
20260506234503 50 298 1.7 3.5 0.00 0.43 0.43 91 1007.2
20260506233102 50 293 0.9 2.6 0.00 0.43 0.43 91 1007.0
20260506231607 51 292 0.9 3.5 0.01 0.43 0.43 91 1006.8
20260506230112 51 225 0.9 2.6 0.01 0.43 0.43 90 1006.4
20260506224554 52 294 0.9 3.5 0.01 0.43 0.43 88 1006.0
20260506223050 55 274 1.7 7.0 0.01 0.43 0.43 84 1005.9
20260506221603 60 229 0.9 3.5 0.00 0.42 0.42 90 1005.1
20260506220048 60 248 1.7 3.5 0.00 0.42 0.42 89 1004.7
20260506214551 60 233 1.7 4.3 0.00 0.42 0.42 90 1004.6
20260506213047 60 135 0.9 4.3 0.00 0.42 0.42 91 1004.5
20260506211546 59 217 0.9 3.5 0.00 0.42 0.42 92 1004.3
20260506210054 59 139 0.9 5.2 0.00 0.42 0.42 92 1004.2
20260506204547 59 196 0.9 4.3 0.00 0.42 0.42 93 1004.2
20260506203044 59 178 1.7 4.3 0.00 0.42 0.42 93 1004.0
20260506201542 59 244 2.6 7.8 0.00 0.42 0.42 92 1004.0
20260506200040 58 189 0.9 5.2 0.00 0.42 0.42 93 1004.2
20260506194540 58 176 0.9 4.3 0.00 0.42 0.42 93 1004.1
20260506193043 58 238 0.9 7.0 0.00 0.42 0.42 93 1004.3
20260506191537 58 150 1.7 7.0 0.01 0.42 0.42 93 1004.4
20260506190035 58 148 1.7 4.3 0.01 0.42 0.42 93 1004.5
20260506184543 58 134 1.7 6.1 0.02 0.42 0.42 93 1004.7
20260506183033 58 143 0.9 6.1 0.04 0.42 0.42 93 1004.7
20260506181540 58 146 1.7 7.0 0.05 0.41 0.41 93 1004.8
20260506180033 58 139 1.7 7.8 0.06 0.41 0.41 93 1004.9
20260506174536 57 231 2.6 6.1 0.06 0.40 0.40 93 1004.8
20260506173031 57 156 2.6 7.0 0.04 0.38 0.38 93 1004.9
20260506171534 57 171 2.6 7.8 0.03 0.36 0.36 92 1004.9
20260506170030 57 138 3.5 7.8 0.04 0.35 0.35 92 1004.8
20260506164543 57 134 5.2 9.6 0.04 0.34 0.34 92 1004.8
20260506163027 57 126 5.2 9.6 0.08 0.34 0.34 93 1004.8
20260506161524 57 141 3.5 10.4 0.12 0.33 0.33 92 1004.8
20260506160050 57 130 3.5 7.0 0.11 0.31 0.31 92 1004.8
20260506154503 57 150 5.2 7.8 0.11 0.28 0.28 92 1005.0
20260506153056 57 141 3.5 12.2 0.10 0.26 0.26 92 1005.2
20260506151524 58 190 2.6 7.8 0.07 0.21 0.21 91 1005.5
20260506150024 58 112 1.7 7.8 0.06 0.19 0.19 92 1005.0
20260506144525 58 157 3.5 8.7 0.08 0.18 0.18 91 1005.0
20260506143019 57 217 2.6 7.0 0.08 0.16 0.16 91 1005.3
20260506141526 57 168 2.6 7.8 0.08 0.14 0.14 91 1005.4
20260506140015 58 182 1.7 6.1 0.08 0.12 0.12 91 1005.6
20260506134515 58 184 2.6 5.2 0.07 0.10 0.10 90 1005.9
20260506133014 58 136 2.6 6.1 0.07 0.08 0.08 90 1006.0
20260506131513 58 156 1.7 6.1 0.05 0.06 0.06 88 1006.1
20260506130009 58 171 2.6 6.1 0.03 0.04 0.04 87 1006.1
20260506124506 59 135 2.6 7.0 0.01 0.02 0.02 85 1006.0
20260506123012 59 134 2.6 10.4 0.00 0.01 0.01 84 1005.9
20260506121510 59 166 2.6 7.8 0.01 0.01 0.01 83 1005.8
20260506120011 59 203 3.5 9.6 0.01 0.01 0.01 83 1005.7
20260506114503 59 171 2.6 7.8 0.01 0.01 0.01 83 1005.8
20260506113100 60 200 3.5 7.8 0.01 0.01 0.01 80 1005.8
20260506111557 61 141 2.6 9.6 0.00 0.00 0.00 75 1005.8
20260506110107 61 198 3.5 9.6 0.00 0.00 0.00 73 1005.7
20260506104611 61 125 3.5 10.4 0.00 0.00 0.00 72 1005.4
20260506103051 61 161 2.6 5.2 0.00 0.00 0.00 70 1005.2
20260506101552 61 142 2.6 4.3 0.00 0.00 0.00 69 1005.3
20260506100058 62 153 2.6 7.0 0.00 0.00 0.00 68 1005.3
20260506094550 62 152 3.5 7.8 0.00 0.00 0.00 67 1005.6
20260506093045 62 159 2.6 7.0 0.00 0.00 0.00 67 1005.6
20260506091543 62 126 3.5 7.8 0.00 0.00 0.00 67 1005.6
20260506090043 62 141 3.5 9.6 0.00 0.00 0.00 66 1005.6